Regional Weather Roundup
Issued by NWS

Home | Current Version | Previous Version | Graphics & Text | Print | Product List | Glossary On
Versions: 1 2 3 4 5 6 7 8 9 10 11 12 13 14 15 16 17 18 19 20 21 22 23 24 25 26 27 28 29 30 31 32 33 34 35 36 37 38 39 40 41 42 43 44 45 46 47 48 49 50
000
ASUS43 KMKX 020710
RWRWI

WISCONSIN REGIONAL WEATHER ROUNDUP
NATIONAL WEATHER SERVICE MILWAUKEE/SULLIVAN WI
100 AM CST MON MAR 02 2015

NOTE: "FAIR" INDICATES FEW OR NO CLOUDS BELOW 12,000 FEET WITH NO
SIGNIFICANT WEATHER AND/OR OBSTRUCTIONS TO VISIBILITY.

WIZ001-002-006>008-014>016-023>028-020800-
NORTHWEST WISCONSIN

CITY           SKY/WX    TMP DP  RH WIND       PRES   REMARKS
SUPERIOR ARPT  CLEAR     13   6  72 W9G16     30.37R WCI   1
ASHLAND        CLOUDY    18   6  59 W12G18    30.33R WCI   5
HAYWARD        CLEAR     14   5  67 NW5       30.32R WCI   6
SIREN          CLEAR     13   6  73 NW8       30.38R WCI   2
CUMBERLAND     CLEAR     14   7  73 NW12G18   30.34R WCI   0
RICE LAKE      CLEAR     16   8  71 W8        30.36R WCI   5
CHETEK         CLEAR     16   8  71 W5        30.35R WCI   9
LADYSMITH      FAIR      16   8  72 W12       30.32R WCI   3
EAU CLAIRE     CLEAR     17   8  67 W10       30.36R WCI   5
MENOMONIE      PTCLDY    19  10  66 NW8       30.37R WCI   9
NEW RICHMOND   CLEAR     15   8  74 W6        30.39R WCI   6
OSCEOLA        CLEAR     16   9  73 W8        30.43R WCI   6
$$

WIZ003>005-009-010-017-018-020800-
NORTH CENTRAL WISCONSIN

CITY           SKY/WX    TMP DP  RH WIND       PRES   REMARKS
MANITOWISH WTR FLURRIES  15   6  66 NW16G25   30.21R WCI   0
ARBOR VITAE    FLURRIES  19  12  74 NW10G21   30.21R WCI   8
WOODRUFF       FLURRIES  19  12  74 NW10G21   30.21R WCI   8
RHINELANDER    CLOUDY    15   6  67 W8        30.20R WCI   4
EAGLE RIVER    LGT SNOW  17   9  70 NW16      30.18R WCI   2
LAND O LAKES   LGT SNOW  17  12  81 NW8G21    30.19R WCI   6
PHILLIPS       FLURRIES  15   9  75 W5        30.24R WCI   8
TOMAHAWK       MOCLDY    15   8  73 CALM      30.24R
MEDFORD        CLEAR     13   7  75 W9        30.27R WCI   1
MERRILL        CLEAR     14   7  73 NW3       30.25R
$$

WIZ029-030-035-036-043>047-020800-
CENTRAL WISCONSIN

CITY           SKY/WX    TMP DP  RH WIND       PRES   REMARKS
WAUSAU         CLEAR     13   5  70 NW9       30.25R WCI   1
MOSINEE        CLEAR     14   9  79 W8        30.28R WCI   3
MARSHFIELD     CLEAR     15   7  70 NW10      30.29R WCI   2
STEVENS POINT  CLEAR     14   7  73 W7        30.29R WCI   4
WAUPACA        CLEAR     19   9  65 W6        30.30R WCI  10
WAUTOMA        CLEAR     16   9  74 W8        30.32R WCI   5
WISC RAPIDS    CLEAR     15   6  67 W9        30.32R WCI   3
CAMP DOUGLAS   CLEAR     16  12  86 W8        30.34R WCI   5
$$

WIZ011>013-019>022-031-037>040-048>050-020800-
NORTHEAST WISCONSIN

CITY           SKY/WX    TMP DP  RH WIND       PRES   REMARKS
ANTIGO         CLEAR     13   6  73 W10       30.22R WCI   0
SHAWANO        CLEAR     19   8  61 W6        30.27R WCI  11
OCONTO         CLEAR     16   6  65 W9        30.26R WCI   4
STURGEON BAY   CLEAR     18   5  57 W10       30.25R WCI   6
GREEN BAY      CLEAR     16   7  67 SW8       30.28R WCI   5
MANITOWOC      CLEAR     18  10  71 W9        30.28R WCI   7
APPLETON       CLEAR     14   5  67 SW7       30.29R WCI   4
CLINTONVILLE   CLEAR     16   7  67 W7        30.28R WCI   6
OSHKOSH        CLEAR     16   6  65 W6        30.30R WCI   7
$$

WIZ032>034-041-042-053>061-020800-
SOUTHWEST WISCONSIN

CITY           SKY/WX    TMP DP  RH WIND       PRES   REMARKS
LA CROSSE      PTCLDY    12   8  84 CALM      30.38R
SPARTA         CLEAR      3   0  86 CALM      30.37R
VIROQUA        CLEAR     14  10  83 W9        30.34R WCI   2
BOSCOBEL       FAIR       9   3  77 SW7       30.40R WCI  -2
PRAIRIE DU CHI CLEAR     16   8  71 W8        30.41R WCI   5
PLATTEVILLE    CLEAR      9   5  84 SW3       30.39R
$$

WIZ056-057-062-063-064-067-068-020800-
SOUTH CENTRAL WISCONSIN

CITY           SKY/WX    TMP DP  RH WIND       PRES   REMARKS
REEDSBURG      CLEAR     17   9  72 W3        30.34R
BARABOO/DELLS  CLEAR     17   9  71 W9        30.34R WCI   6
LONE ROCK      CLEAR     16   8  71 W8        30.38R WCI   5
MINERAL POINT  CLEAR     14   9  79 W9        30.35R WCI   2
MADISON        CLEAR     15   6  67 VRB3      30.35R
MIDDLETON      CLEAR     16   7  67 CALM      30.36R
WATERTOWN      CLEAR     14   7  71 SW3       30.35R
MONROE         CLEAR     16  10  79 W16       30.35S WCI   0
JANESVILLE     CLEAR     18   9  68 W5        30.38R WCI  11
$$

WIZ051-052-058>065-066-070>072-020800-
SOUTHEAST WISCONSIN

CITY           SKY/WX    TMP DP  RH WIND       PRES   REMARKS
MILWAUKEE      CLEAR     20   6  55 W9        30.34R WCI   9
WAUKESHA       CLEAR     16   7  67 SW8       30.35R WCI   5
MILWAUKEE/TIMM CLEAR     18   7  62 W10       30.34R WCI   6
RACINE         CLEAR     17   6  62 W9        30.37R WCI   6
BURLINGTON     CLEAR     13   5  70 SW5       30.37R WCI   5
KENOSHA        CLEAR     16   6  65 W12       30.36R WCI   3
FOND DU LAC    CLEAR     16   6  65 SW6       30.32R WCI   7
SHEBOYGAN      CLEAR     18   7  62 W13       30.30R WCI   5
WEST BEND      CLEAR     18   7  62 W10       30.31R WCI   6
JUNEAU         CLEAR     11   4  76 SW7       30.34R WCI   0
$$

LSZ147-162-020800-
LAKE SUPERIOR

STATION/POSITION TIME  TEMP    WIND        PRES    WAVE
                       AIR SEA DIR/SP/G            HT/PER
                 (UTC) (F)     (DEG/KT/KT) (MB)    (FT/S)
DEVILS ISLAND    0700   19     290/ 20/ 23 1027.6R
PORT WING        0640   18     290/ 15/ 19 1027.4R
SAXON HARBOR     0620   20     310/ 17/ 23 1026.1R
$$

LMZ867-665-643>646-020800-
LAKE MICHIGAN

STATION/POSITION TIME  TEMP    WIND        PRES    WAVE
                       AIR SEA DIR/SP/G            HT/PER
                 (UTC) (F)     (DEG/KT/KT) (MB)    (FT/S)
NORTHPORT PIER   0704   18     270/  7/ 18 1023.4R
SISTER BAY       0613   15     290/  9/ 10   N/A
KEWAUNEE LAKESHO 0600   19     290/  9/ 12   N/A
SHEBOYGAN LAKESH 0700   20     270/ 10/ 13 1027.8R
PORT WASHINGTON  0600   21     270/  5/ 10 1026.8
MILWAUKEE LAKESH 0600   22     280/ 12/ 16   N/A
KENOSHA   LAKESH 0700   18     270/ 10/ 14 1028.1R
$$

TC  - TEMPERATURE IN CELSIUS
VSB - VISIBILITY IN STATUTE MILES
WCI - WIND CHILL INDEX
HX  - HEAT INDEX



USA.gov is the U.S. government's official web portal to all federal, state and local government web resources and services.